軌道要素
Epoch 2014 Mar. 4.0 TT = JDT 2456720.5
T 2014 Feb. 18.23315 TT MPC
q 0.5122496 (2000.0) P Q
z +0.0015210 Peri. 56.04518 -0.44680944 -0.57920964
+/-0.0000196 Node 283.34896 -0.85516645 +0.50037432
e 0.9992209 Incl. 135.51261 +0.26277684 +0.64353845
From 154 observations 2014 Jan. 31-Mar. 30, mean residual 0".8.
|